Regional Weather Roundup
Issued by NWS

Home | Current Version | Previous Version | Text Only | Print | Product List | Glossary Off
Versions: 1 2 3 4 5 6 7 8 9 10 11 12 13 14 15 16 17 18 19 20 21 22 23 24 25 26 27 28 29 30 31 32 33 34 35 36 37 38 39 40 41 42 43 44 45 46 47 48 49 50

000
ASUS43 KDMX 271307
RWRIA

WEATHER ROUNDUP FOR IOWA
NATIONAL WEATHER SERVICE DES MOINES IA
800 AM CDT FRI MAR 27 2015

NOTE: "FAIR" INDICATES FEW OR NO CLOUDS BELOW 12,000 FEET WITH NO
SIGNIFICANT WEATHER AND/OR OBSTRUCTIONS TO VISIBILITY.

* - THESE STATIONS ARE NOT NWS STATIONS...THUS NOT UNDER NWS
QUALITY CONTROL.  THEY ALSO DO NOT REPORT WEATHER SUCH
AS PRECIPITATION OR FOG.

IAZ001>003-012>014-020>022-031>034-043>046-271400-
   NORTHWEST IOWA

CITY           SKY/WX    TMP DP  RH WIND       PRES   REMARKS
CARROLL *      CLEAR     21  16  79 NW8       30.26R WCI  12
CHEROKEE *     CLEAR     18  14  86 CALM      30.28R
DENISON *      CLEAR     19  18  93 CALM      30.26R
LE MARS *      CLEAR     16  14  93 CALM      30.30S
ORANGE CITY *  CLEAR     19  14  79 N3        30.27S
SHELDON *      CLEAR     14  12  92 NW6       30.26S WCI   5
SIOUX CITY     CLEAR     21  14  74 NW6       30.31R WCI  13
SPENCER        CLEAR     17  11  77 NW7       30.27R WCI   8
STORM LAKE *   CLEAR     18  14  86 N8        30.26R WCI   7
$$

IAZ055>058-069>071-079>083-090>094-271400-
   SOUTHWEST IOWA

CITY           SKY/WX    TMP DP  RH WIND       PRES   REMARKS
ATLANTIC *     CLEAR     21  18  86 N8        30.28R WCI  12
AUDUBON *      CLEAR     21  16  79 NW3       30.26R
CLARINDA *     CLEAR     23  19  86 N6        30.30R WCI  16
COUNCIL BLFS * CLEAR     23  18  80 N3        30.29R
CRESTON *      CLEAR     23  19  86 N9        30.25R WCI  13
HARLAN  *      CLEAR     19  21 100 NW6       30.31S WCI  11
LAMONI         CLEAR     26  19  74 NW9       30.23R WCI  17
RED OAK *      CLEAR     25  19  80 NW7       30.29R WCI  17
SHENANDOAH *   CLEAR     25  19  80 N7        30.31R WCI  17
$$

IAZ047>049-059>061-072>074-084-271400-
   CENTRAL IOWA

CITY           SKY/WX    TMP DP  RH WIND       PRES   REMARKS
AMES           CLEAR     23  18  81 N9        30.25R WCI  13
ANKENY *       CLEAR     25  19  80 N8        30.25R WCI  16
CHARITON *     CLEAR     27  19  74 N9        30.24R WCI  17
DES MOINES     CLEAR     27  17  66 N7        30.25R WCI  19
GRINNELL*      CLEAR     25  19  80 N9        30.23R WCI  15
KNOXVILLE *    CLEAR     27  18  69 N9G15     30.22R WCI  17
MARSHALLTOWN   CLEAR     23  17  78 N9        30.24R WCI  13
PELLA *        CLEAR     27  23  86 N8        30.25R WCI  18
PERRY *          N/A     23  19  86 N6        30.26R WCI  16
$$

IAZ004>006-015-016-023>025-035-036-271400-
   NORTH CENTRAL IOWA

CITY           SKY/WX    TMP DP  RH WIND       PRES   REMARKS
ALGONA *       CLEAR     21  18  86 N6        30.26S WCI  14
CLARION *      CLEAR     23  19  86 N7        30.25R WCI  15
ESTHERVILLE    CLEAR     17  11  77 N5        30.24S WCI  10
FORT DODGE *   CLEAR     21  16  79 N6        30.26S WCI  14
MASON CITY     CLEAR     20  14  77 N6        30.26R WCI  12
FOREST CITY *  CLEAR     19  18  93 N3        30.24S
IOWA FALLS *     N/A     23  18  80 N6        30.25R WCI  16
$$

IAZ007>011-017>019-026>030-037>042-050>054-066-271400-
   NORTHEAST IOWA

CITY           SKY/WX    TMP DP  RH WIND       PRES   REMARKS
CEDAR RAPIDS   SUNNY     24  11  57 NE14G23   30.21R WCI  12
CHARLES CITY * CLEAR     19  12  73 N7        30.25R WCI  10
CLINTON *      SUNNY     23  10  58 N15       30.23R WCI  10
DECORAH *      SUNNY     19   7  58 N3        30.22R
DUBUQUE        SUNNY     21   5  50 NE14      30.20R WCI   8
MONTICELLO *   SUNNY     23   9  54 NE9G16    30.23R WCI  13
OELWEIN *      SUNNY     21  12  68 NE8       30.24R WCI  12
WATERLOO       SUNNY     22  15  75 NE7       30.24R WCI  13
$$

IAZ064-065-067-068-078-271400-
   EAST CENTRAL IOWA

CITY           SKY/WX    TMP DP  RH WIND       PRES   REMARKS
DAVENPORT      SUNNY     25  11  55 N13       30.20R WCI  14
IOWA CITY      SUNNY     26  12  55 NE15      30.23R WCI  14
MT. PLEASANT * SUNNY     28  23  80 N12       30.20R WCI  18
MUSCATINE *    MOSUNNY   28  16  59 NE14G21   30.22R WCI  17
QUAD CITIES    PTSUNNY   27  11  51 N12       30.19R WCI  17
$$

IAZ062-063-075>077-085>089-095>099-271400-
   SOUTHEAST IOWA

CITY           SKY/WX    TMP DP  RH WIND       PRES   REMARKS
BURLINGTON     CLOUDY    30  23  75 N9        30.17R WCI  22
FAIRFIELD *    SUNNY     28  21  74 N10       30.20R WCI  19
FORT MADISON * CLOUDY    28  23  80 N9        30.19R WCI  20
KEOKUK *       CLOUDY    32  23  69 N13       30.18R WCI  22
OSKALOOSA *      N/A     25  21  86 N9        30.22R WCI  15
CENTERVILLE *  CLEAR     28  21  74 N10       30.23R WCI  19
OTTUMWA        SUNNY     26  20  77 N12       30.21R WCI  16
WASHINGTON *   MOSUNNY   28  25  86 N10       30.21R WCI  19
$$

ABBREVIATIONS USED IN REMARKS
   TC - TEMPERATURES IN CELSIUS
  WCI - WIND CHILL INDEX
   HX - HEAT INDEX
  VSB - VISIBILITY
$$



USA.gov is the U.S. government's official web portal to all federal, state and local government web resources and services.